Location: Bretagne
(43.8474°N, 0.4650°W)
Time: 00:34:30
(UTC+00:00)

Envisat - Pass Details

Date: 13 March 2026
Orbit: 761 x 762 km, 98.4° (Epoch: 13 April)

Event Time Altitude Azimuth Distance (km) Brightness Sun altitude
Rises 02:21:16 0° 18° (NNE) 3,234 7.0 -40.1°
Reaches altitude 10° 02:23:39 10° 23° (NNE) 2,303 6.1 -39.8°
Enters shadow 02:25:04 19° 28° (NNE) 1,772 5.4 -39.6°
